Point Pleasant, WV

9:56 AM EDT on October 17, 2017 (GMT -0400)
Point Pleasant

Weather History for K3I2 - February, 2013

Change the Weather History Date:

Sunday, February 3, 2013

  Actual Average (KHTS) Record (KHTS)
Temperature  
Mean Temperature 26 °F -  
Max Temperature 30 °F 43 °F 66 °F (1962)
Min Temperature 23 °F 26 °F -4 °F (1951)
Degree Days  
Heating Degree Days 38    
Moisture  
Dew Point 21 °F    
Average Humidity 78    
Maximum Humidity 93    
Minimum Humidity 60    
Precipitation  
Precipitation 0.00 in - - ()
Sea Level Pressure  
Sea Level Pressure 30.00 in    
Wind  
Wind Speed 5 mph (WSW)    
Max Wind Speed 12 mph    
Max Gust Speed 18 mph    
Visibility 9 miles    
Events Snow    
Averages and records for this station are not official NWS values.
T = Trace of Precipitation, MM = Missing Value Source: NWS Daily Summary

Daily Weather History Graph

Daily Weather History Graph

Search for Another Location

Airport or City:

Trip Planner

Search our weather history database for the weather conditions in past years. The results will help you decide how hot, cold, wet, or windy it might be!

Date:

Astronomy

Feb. 03, 2013 Rise Set
Actual Time 7:32 AM EST 5:52 PM EST
Civil Twilight 7:04 AM EST 6:20 PM EST
Nautical Twilight 6:32 AM EST 6:52 PM EST
Astronomical Twilight 6:01 AM EST 7:23 PM EST
Moon 12:58 AM EST (2/3) 11:29 AM EST (2/3)
Length of Visible Light 11h 15m
Length of Day
10h 19m
Waning Gibbous, 49% of the Moon is Illuminated
Feb 3
Waning Gibbous
Feb 10
New
Feb 17
First Quarter
Feb 25
Full
Mar 4
Last Quarter

Hourly Weather History & Observations

Time (EST) Temp. Windchill Dew Point Humidity Pressure Visibility Wind Dir Wind Speed Gust Speed Precip Events Conditions
12:15 AM 30.2 °F 26.7 °F 26.6 °F 86% 30.02 in 10.0 mi WSW 3.5 mph - N/A   Mostly Cloudy
12:35 AM 30.2 °F 26.7 °F 26.6 °F 86% 30.02 in 10.0 mi WSW 3.5 mph - N/A   Mostly Cloudy
12:55 AM 30.2 °F - 26.6 °F 86% 30.02 in 7.0 mi Calm Calm - N/A   Overcast
1:15 AM 30.2 °F 25.4 °F 26.6 °F 86% 30.01 in 10.0 mi WSW 4.6 mph - N/A   Overcast
1:35 AM 28.4 °F 23.3 °F 26.6 °F 93% 30.01 in 10.0 mi WSW 4.6 mph - N/A   Overcast
1:55 AM 28.4 °F 22.2 °F 26.6 °F 93% 30.00 in 10.0 mi SW 5.8 mph - N/A   Overcast
2:15 AM 28.4 °F 21.2 °F 26.6 °F 93% 30.00 in 10.0 mi SW 6.9 mph - N/A   Mostly Cloudy
2:35 AM 28.4 °F 23.3 °F 26.6 °F 93% 29.99 in 10.0 mi WSW 4.6 mph - N/A   Mostly Cloudy
2:55 AM 28.4 °F 22.2 °F 26.6 °F 93% 29.99 in 10.0 mi WSW 5.8 mph - N/A   Mostly Cloudy
3:15 AM 28.4 °F 23.3 °F 24.8 °F 86% 29.98 in 10.0 mi SW 4.6 mph - N/A   Mostly Cloudy
3:35 AM 28.4 °F 21.2 °F 24.8 °F 86% 29.98 in 10.0 mi WSW 6.9 mph - N/A   Mostly Cloudy
4:15 AM 28.4 °F 23.3 °F 24.8 °F 86% 29.96 in 10.0 mi WSW 4.6 mph - N/A   Mostly Cloudy
4:55 AM 28.4 °F 21.2 °F 23.0 °F 80% 29.96 in 10.0 mi SW 6.9 mph - N/A   Overcast
5:15 AM 28.4 °F 23.3 °F 23.0 °F 80% 29.95 in 10.0 mi SW 4.6 mph - N/A   Overcast
5:35 AM 28.4 °F 22.2 °F 23.0 °F 80% 29.94 in 10.0 mi SW 5.8 mph - N/A   Overcast
5:55 AM 28.4 °F 23.3 °F 23.0 °F 80% 29.94 in 10.0 mi SW 4.6 mph - N/A   Overcast
6:15 AM 28.4 °F 22.2 °F 23.0 °F 80% 29.94 in 10.0 mi SW 5.8 mph - N/A   Mostly Cloudy
6:35 AM 28.4 °F 22.2 °F 23.0 °F 80% 29.93 in 7.0 mi SW 5.8 mph - N/A   Mostly Cloudy
6:55 AM 28.4 °F 21.2 °F 24.8 °F 86% 29.93 in 5.0 mi SW 6.9 mph - N/A Snow Light Snow
7:15 AM 28.4 °F 23.3 °F 24.8 °F 86% 29.93 in 10.0 mi SW 4.6 mph - N/A   Overcast
7:35 AM 28.4 °F 24.6 °F 24.8 °F 86% 29.93 in 10.0 mi SW 3.5 mph - N/A   Overcast
7:55 AM 28.4 °F 24.6 °F 24.8 °F 86% 29.93 in 10.0 mi SW 3.5 mph - N/A   Overcast
8:15 AM 28.4 °F 24.6 °F 24.8 °F 86% 29.93 in 10.0 mi SW 3.5 mph - N/A   Overcast
8:35 AM 28.4 °F 24.6 °F 24.8 °F 86% 29.93 in 10.0 mi SW 3.5 mph - N/A   Mostly Cloudy
8:55 AM 28.4 °F 20.4 °F 24.8 °F 86% 29.93 in 10.0 mi SW 8.1 mph - N/A   Scattered Clouds
9:15 AM 30.2 °F 22.6 °F 23.0 °F 75% 29.93 in 10.0 mi WSW 8.1 mph - N/A   Mostly Cloudy
9:35 AM 30.2 °F 22.6 °F 23.0 °F 75% 29.93 in 10.0 mi WSW 8.1 mph - N/A   Mostly Cloudy
9:55 AM 30.2 °F 23.4 °F 23.0 °F 75% 29.93 in 10.0 mi West 6.9 mph - N/A   Mostly Cloudy
10:15 AM 30.2 °F 24.3 °F 23.0 °F 75% 29.93 in 10.0 mi WSW 5.8 mph - N/A   Scattered Clouds
10:35 AM 28.4 °F 20.4 °F 19.4 °F 69% 29.94 in 7.0 mi West 8.1 mph 18.4 mph N/A   Scattered Clouds
10:55 AM 30.2 °F 21.3 °F 17.6 °F 60% 29.94 in 10.0 mi WSW 10.4 mph - N/A   Scattered Clouds
11:15 AM 28.4 °F 18.5 °F 17.6 °F 64% 29.94 in 10.0 mi WSW 11.5 mph 17.3 mph N/A   Scattered Clouds
11:55 AM 28.4 °F 19.7 °F 19.4 °F 69% 29.94 in 7.0 mi WSW 9.2 mph 17.3 mph N/A   Mostly Cloudy
12:15 PM 28.4 °F 21.2 °F 19.4 °F 69% 29.94 in 5.0 mi WSW 6.9 mph - N/A Snow Light Snow
12:35 PM 28.4 °F 20.4 °F 21.2 °F 74% 29.94 in 2.0 mi WSW 8.1 mph 17.3 mph N/A Snow Light Snow
12:55 PM 28.4 °F 21.2 °F 21.2 °F 74% 29.94 in 5.0 mi WSW 6.9 mph - N/A Snow Light Snow
1:15 PM 26.6 °F 16.2 °F 21.2 °F 80% 29.94 in 7.0 mi WSW 11.5 mph - N/A   Mostly Cloudy
1:35 PM 26.6 °F 19.1 °F 21.2 °F 80% 29.95 in 5.0 mi WSW 6.9 mph - N/A Snow Light Snow
1:55 PM 26.6 °F 17.5 °F 19.4 °F 74% 29.95 in 7.0 mi West 9.2 mph 16.1 mph N/A   Scattered Clouds
2:15 PM 26.6 °F 16.8 °F 19.4 °F 74% 29.95 in 7.0 mi WSW 10.4 mph 17.3 mph N/A   Scattered Clouds
2:35 PM 26.6 °F 19.1 °F 19.4 °F 74% 29.96 in 7.0 mi WSW 6.9 mph - N/A   Mostly Cloudy
2:55 PM 26.6 °F 17.5 °F 19.4 °F 74% 29.97 in 10.0 mi WSW 9.2 mph - N/A   Mostly Cloudy
3:15 PM 28.4 °F 22.2 °F 17.6 °F 64% 29.98 in 10.0 mi West 5.8 mph - N/A   Mostly Cloudy
3:55 PM 26.6 °F 16.8 °F 17.6 °F 69% 30.00 in 10.0 mi West 10.4 mph 18.4 mph N/A   Overcast
4:15 PM 26.6 °F 21.2 °F 17.6 °F 69% 30.01 in 10.0 mi West 4.6 mph - N/A   Mostly Cloudy
4:35 PM 26.6 °F 18.2 °F 15.8 °F 64% 30.01 in 10.0 mi WSW 8.1 mph - N/A   Scattered Clouds
4:55 PM 26.6 °F 20.0 °F 17.6 °F 69% 30.02 in 10.0 mi West 5.8 mph - N/A   Scattered Clouds
5:15 PM 26.6 °F 21.2 °F 17.6 °F 69% 30.03 in 10.0 mi West 4.6 mph - N/A Snow Light Snow
5:55 PM 26.6 °F 20.0 °F 17.6 °F 69% 30.05 in 7.0 mi West 5.8 mph - N/A Snow Light Snow
6:15 PM 26.6 °F - 17.6 °F 69% 30.06 in 7.0 mi Calm Calm - N/A Snow Light Snow
6:55 PM 26.6 °F 22.6 °F 19.4 °F 74% 30.08 in 7.0 mi West 3.5 mph - N/A Snow Light Snow
7:15 PM 26.6 °F 20.0 °F 19.4 °F 74% 30.09 in 10.0 mi West 5.8 mph - N/A Snow Light Snow
7:35 PM 26.6 °F 21.2 °F 19.4 °F 74% 30.10 in 10.0 mi West 4.6 mph - N/A   Mostly Cloudy
7:55 PM 26.6 °F 22.6 °F 19.4 °F 74% 30.11 in 10.0 mi West 3.5 mph - N/A Snow Light Snow
8:15 PM 26.6 °F 20.0 °F 19.4 °F 74% 30.11 in 10.0 mi WSW 5.8 mph - N/A   Mostly Cloudy
8:35 PM 26.6 °F 21.2 °F 17.6 °F 69% 30.12 in 10.0 mi West 4.6 mph - N/A   Mostly Cloudy
8:55 PM 26.6 °F 21.2 °F 17.6 °F 69% 30.13 in 10.0 mi West 4.6 mph - N/A   Mostly Cloudy
9:15 PM 24.8 °F 19.1 °F 17.6 °F 74% 30.12 in 10.0 mi West 4.6 mph - N/A   Mostly Cloudy
9:35 PM 24.8 °F 17.9 °F 17.6 °F 74% 30.13 in 10.0 mi WSW 5.8 mph - N/A   Overcast
9:55 PM 24.8 °F 19.1 °F 17.6 °F 74% 30.13 in 10.0 mi WSW 4.6 mph - N/A   Overcast
10:15 PM 24.8 °F 19.1 °F 19.4 °F 80% 30.14 in 10.0 mi West 4.6 mph - N/A   Overcast
10:35 PM 24.8 °F 17.9 °F 17.6 °F 74% 30.14 in 10.0 mi WSW 5.8 mph - N/A   Mostly Cloudy
10:55 PM 23.0 °F 17.0 °F 17.6 °F 80% 30.13 in 10.0 mi WSW 4.6 mph - N/A   Scattered Clouds
11:15 PM 24.8 °F 17.9 °F 19.4 °F 80% 30.13 in 10.0 mi WSW 5.8 mph - N/A   Mostly Cloudy
11:55 PM 24.8 °F 17.9 °F 19.4 °F 80% 30.14 in 10.0 mi WSW 5.8 mph - N/A   Mostly Cloudy